Total_Precipitation_Accumulation
0.75 0.66 0.59 0.50 0.48 0.48 0.51 0.65 1.05 1.50 1.92 2.36 2.51 2.66 2.93 3.06 2.97 2.73 2.33 2.08 2.00 1.90 1.80 1.68 1.52 1.45 1.36 1.28 1.16 1.14 1.10 1.11 1.12 1.10 1.08 1.05 1.10 1.15 1.17 1.16 1.07 1.01 0.95 0.89
0.74 0.58 0.63 0.62 0.63 0.65 0.62 0.68 0.99 1.44 2.12 2.43 2.63 2.81 2.90 2.88 2.94 2.89 2.50 2.25 2.10 1.96 1.84 1.78 1.64 1.56 1.47 1.38 1.32 1.27 1.19 1.18 1.12 1.10 1.06 1.03 1.04 1.07 1.04 1.01 0.99 0.95 0.87 0.80
1.10 0.68 0.89 1.23 1.02 0.89 0.91 0.95 1.15 1.55 1.95 2.12 2.29 2.45 2.73 2.91 2.85 2.85 2.62 2.38 2.16 2.05 1.99 1.93 1.87 1.77 1.64 1.47 1.39 1.20 1.10 1.08 1.04 1.02 0.98 0.96 0.92 0.92 0.94 1.01 1.01 0.93 0.84 0.80
1.14 1.27 1.73 1.47 0.97 0.85 1.01 1.10 1.11 1.31 1.40 1.64 1.84 2.09 2.41 2.63 2.81 2.86 2.70 2.53 2.32 2.12 2.04 1.98 1.88 1.74 1.57 1.37 1.20 1.05 0.99 0.96 0.91 0.88 0.87 0.90 0.86 0.87 0.92 0.96 0.95 0.93 0.91 0.93
1.37 1.68 1.78 1.46 0.95 0.83 1.15 1.36 1.08 1.14 1.19 1.21 1.31 1.60 2.17 2.27 2.37 2.50 2.55 2.48 2.33 2.12 1.99 1.90 1.71 1.55 1.41 1.20 1.08 1.02 0.95 0.91 0.82 0.75 0.82 0.84 0.81 0.83 0.90 0.90 0.89 0.88 0.89 0.96
1.43 1.88 2.18 1.77 0.87 0.61 0.99 1.84 1.28 1.15 1.24 1.23 1.40 1.77 1.89 1.74 1.78 1.90 2.04 2.14 2.09 1.90 1.77 1.70 1.52 1.37 1.33 1.19 1.05 0.98 0.91 0.88 0.81 0.78 0.81 0.85 0.88 0.87 0.81 0.83 0.81 0.75 0.80 0.91
1.51 1.88 1.93 1.08 0.67 0.83 1.77 2.12 1.44 1.17 1.27 1.48 1.73 1.71 1.39 1.22 1.36 1.49 1.60 1.74 1.75 1.66 1.64 1.52 1.33 1.28 1.36 1.37 1.17 0.94 0.83 0.82 0.85 0.86 0.80 0.77 0.81 0.82 0.78 0.72 0.75 0.77 0.77 0.84
1.61 2.04 2.04 0.88 0.76 1.31 1.58 1.24 1.09 1.08 1.15 1.18 1.22 1.13 1.03 1.02 1.13 1.20 1.33 1.43 1.52 1.58 1.52 1.41 1.30 1.29 1.33 1.33 1.14 0.94 0.89 0.91 0.88 0.81 0.69 0.64 0.75 0.75 0.73 0.73 0.77 0.81 0.82 0.85
1.59 1.89 1.45 0.83 0.79 0.85 0.86 0.98 0.97 1.01 1.02 0.95 0.97 0.99 0.94 0.99 1.11 1.19 1.24 1.31 1.36 1.41 1.39 1.33 1.25 1.27 1.28 1.19 1.02 0.95 0.99 0.97 0.92 0.81 0.72 0.71 0.74 0.73 0.70 0.72 0.70 0.69 0.71 0.76
1.18 1.23 1.09 0.95 0.83 0.80 0.84 0.87 0.88 0.93 0.93 0.87 0.88 0.88 0.90 1.01 1.12 1.17 1.15 1.16 1.23 1.28 1.29 1.24 1.14 1.13 1.14 1.03 0.99 1.04 1.03 0.95 0.91 0.84 0.75 0.68 0.66 0.61 0.64 0.67 0.67 0.67 0.64 0.66
1.25 1.25 1.18 1.14 1.00 0.93 0.96 0.95 0.91 0.95 0.97 0.89 0.83 0.87 0.91 1.02 1.04 1.07 1.08 1.07 1.11 1.23 1.24 1.10 1.00 0.94 0.91 0.96 1.02 1.07 0.99 0.86 0.79 0.72 0.68 0.67 0.60 0.54 0.54 0.57 0.59 0.59 0.54 0.50
1.28 1.19 1.19 1.15 0.99 0.94 1.08 1.15 1.05 1.02 0.96 0.86 0.82 0.85 0.83 0.85 0.88 0.90 0.94 0.98 1.04 1.05 1.05 0.97 0.89 0.87 0.81 0.87 0.93 0.94 0.87 0.75 0.65 0.58 0.56 0.49 0.49 0.47 0.45 0.45 0.45 0.47 0.45 0.39
0.89 0.82 0.86 0.87 0.86 0.95 1.11 1.10 0.97 0.89 0.83 0.81 0.74 0.77 0.82 0.79 0.80 0.81 0.82 0.83 0.86 0.84 0.84 0.84 0.80 0.81 0.77 0.78 0.80 0.82 0.80 0.72 0.61 0.55 0.51 0.44 0.45 0.51 0.53 0.43 0.38 0.39 0.39 0.37
0.81 0.81 0.96 0.96 0.90 0.84 0.92 0.94 0.84 0.69 0.72 0.80 0.77 0.73 0.78 0.73 0.71 0.74 0.80 0.75 0.70 0.69 0.69 0.65 0.65 0.70 0.71 0.70 0.72 0.71 0.64 0.60 0.55 0.52 0.48 0.46 0.46 0.47 0.50 0.55 0.54 0.44 0.32 0.29
0.86 0.79 0.88 0.85 0.73 0.68 0.70 0.75 0.76 0.70 0.71 0.75 0.74 0.71 0.70 0.72 0.72 0.70 0.74 0.66 0.61 0.66 0.69 0.59 0.58 0.63 0.64 0.60 0.61 0.59 0.56 0.56 0.55 0.52 0.48 0.45 0.44 0.46 0.47 0.52 0.56 0.51 0.42 0.33
0.84 0.69 0.66 0.65 0.62 0.60 0.61 0.63 0.65 0.63 0.62 0.62 0.57 0.58 0.59 0.62 0.66 0.63 0.65 0.64 0.66 0.69 0.71 0.64 0.60 0.58 0.59 0.62 0.61 0.55 0.51 0.49 0.50 0.49 0.48 0.46 0.44 0.45 0.49 0.53 0.55 0.53 0.47 0.41
0.88 0.79 0.71 0.65 0.59 0.56 0.56 0.59 0.56 0.51 0.52 0.50 0.49 0.47 0.49 0.55 0.61 0.60 0.58 0.59 0.65 0.69 0.65 0.59 0.55 0.48 0.48 0.53 0.55 0.51 0.46 0.44 0.42 0.40 0.39 0.38 0.37 0.39 0.45 0.51 0.53 0.51 0.44 0.41
0.78 0.72 0.64 0.61 0.55 0.50 0.46 0.47 0.48 0.45 0.49 0.43 0.40 0.42 0.48 0.58 0.60 0.54 0.51 0.53 0.60 0.66 0.64 0.55 0.48 0.45 0.44 0.47 0.50 0.49 0.43 0.39 0.33 0.32 0.32 0.34 0.36 0.37 0.40 0.43 0.44 0.46 0.44 0.41
0.64 0.53 0.44 0.43 0.44 0.43 0.41 0.40 0.42 0.41 0.41 0.39 0.38 0.42 0.46 0.55 0.53 0.43 0.43 0.49 0.59 0.66 0.63 0.53 0.50 0.48 0.51 0.54 0.51 0.47 0.42 0.38 0.32 0.28 0.29 0.34 0.38 0.42 0.43 0.45 0.46 0.46 0.43 0.41
0.53 0.43 0.36 0.35 0.35 0.34 0.35 0.35 0.40 0.42 0.39 0.35 0.38 0.40 0.42 0.50 0.49 0.43 0.44 0.49 0.52 0.55 0.56 0.55 0.48 0.45 0.48 0.50 0.47 0.42 0.40 0.38 0.37 0.33 0.35 0.41 0.41 0.39 0.41 0.43 0.45 0.47 0.45 0.43
0.47 0.37 0.34 0.35 0.34 0.32 0.32 0.34 0.35 0.37 0.40 0.40 0.44 0.46 0.43 0.47 0.50 0.49 0.51 0.51 0.47 0.45 0.48 0.52 0.49 0.50 0.48 0.44 0.39 0.34 0.35 0.37 0.39 0.38 0.38 0.41 0.41 0.41 0.44 0.45 0.47 0.51 0.51 0.47
0.42 0.37 0.34 0.31 0.33 0.34 0.32 0.34 0.36 0.35 0.38 0.40 0.42 0.44 0.44 0.49 0.49 0.48 0.51 0.55 0.49 0.46 0.45 0.47 0.50 0.51 0.48 0.46 0.38 0.33 0.33 0.39 0.41 0.43 0.44 0.44 0.45 0.46 0.48 0.48 0.48 0.46 0.46 0.50
0.39 0.38 0.39 0.40 0.38 0.36 0.33 0.37 0.40 0.37 0.38 0.39 0.38 0.39 0.43 0.47 0.48 0.47 0.51 0.49 0.42 0.43 0.44 0.44 0.46 0.48 0.45 0.46 0.45 0.40 0.36 0.38 0.43 0.49 0.49 0.45 0.43 0.45 0.45 0.45 0.45 0.43 0.44 0.46
0.42 0.42 0.43 0.43 0.42 0.40 0.42 0.45 0.45 0.42 0.40 0.38 0.38 0.40 0.41 0.43 0.44 0.38 0.41 0.41 0.40 0.43 0.42 0.38 0.34 0.31 0.32 0.35 0.41 0.43 0.44 0.42 0.41 0.44 0.47 0.45 0.42 0.40 0.40 0.43 0.44 0.44 0.44 0.41
0.48 0.48 0.50 0.51 0.56 0.57 0.54 0.51 0.46 0.43 0.42 0.41 0.36 0.35 0.37 0.40 0.41 0.36 0.35 0.34 0.33 0.32 0.30 0.29 0.26 0.25 0.24 0.26 0.31 0.37 0.44 0.47 0.44 0.42 0.44 0.48 0.43 0.39 0.41 0.44 0.47 0.47 0.44 0.43
0.58 0.55 0.54 0.55 0.56 0.59 0.56 0.50 0.44 0.43 0.43 0.45 0.45 0.40 0.39 0.40 0.38 0.35 0.33 0.31 0.29 0.26 0.24 0.26 0.26 0.27 0.25 0.26 0.29 0.33 0.39 0.43 0.42 0.42 0.45 0.49 0.47 0.44 0.44 0.46 0.48 0.48 0.44 0.43
0.67 0.65 0.64 0.58 0.54 0.54 0.55 0.55 0.53 0.49 0.46 0.43 0.42 0.40 0.40 0.40 0.39 0.37 0.34 0.31 0.29 0.27 0.26 0.27 0.26 0.25 0.24 0.24 0.27 0.32 0.37 0.39 0.40 0.46 0.47 0.48 0.51 0.52 0.51 0.50 0.53 0.54 0.51 0.47